EDT,Max TemperatureF,Mean TemperatureF,Min TemperatureF,Max Dew PointF,MeanDew PointF,Min DewpointF,Max Humidity, Mean Humidity, Min Humidity, Max Sea Level PressureIn, Mean Sea Level PressureIn, Min Sea Level PressureIn, Max VisibilityMiles, Mean VisibilityMiles, Min VisibilityMiles, Max Wind SpeedMPH, Mean Wind SpeedMPH, Max Gust SpeedMPH,PrecipitationIn, CloudCover, Events, WindDirDegrees
2013-9-1,81,74,67,72,68,66,100,84,67,29.86,29.82,29.77,10,9,1,14,6,20,0.38,7,Rain-Thunderstorm,78
2013-9-2,83,74,64,72,67,57,100,81,62,29.81,29.74,29.68,10,10,9,20,8,24,T,6,Rain,248
2013-9-3,68,64,59,58,56,55,84,76,68,29.95,29.86,29.79,10,10,10,21,10,28,T,7,,263
2013-9-4,79,66,53,64,56,49,93,65,37,30.00,29.97,29.96,10,9,1,24,11,30,0.14,4,Rain,266
2013-9-5,66,57,47,61,48,39,93,68,43,30.25,30.13,29.98,10,10,10,18,7,23,0.00,4,,308
2013-9-6,70,57,43,51,45,41,96,67,37,30.31,30.23,30.12,10,10,10,12,5,16,0.00,3,,236
2013-9-7,66,60,53,60,54,48,97,82,67,30.11,29.99,29.88,10,10,5,15,7,17,0.09,6,Rain,220
2013-9-8,66,57,48,64,52,41,93,68,43,30.14,30.01,29.86,10,8,3,22,8,26,0.06,6,Rain,344
2013-9-9,77,61,45,61,51,43,93,71,48,30.18,30.10,29.99,10,10,10,17,6,23,0.00,5,,216
2013-9-10,91,79,67,74,69,60,85,71,56,30.00,29.96,29.92,10,9,4,24,13,32,0.22,5,Rain-Thunderstorm,226
2013-9-11,92,83,74,74,71,66,88,69,49,30.04,29.99,29.90,10,8,5,20,10,28,T,4,,223
2013-9-12,74,67,59,69,65,57,93,86,79,29.93,29.82,29.73,10,9,2,25,8,32,0.10,6,Rain-Thunderstorm,254
2013-9-13,61,56,50,58,52,46,96,87,77,30.04,29.90,29.77,10,7,2,16,8,22,0.20,8,Rain,333
2013-9-14,62,55,47,47,44,37,86,64,42,30.15,30.10,30.03,10,10,10,14,7,17,0.00,6,,278
2013-9-15,69,58,46,52,47,41,93,74,55,30.18,30.13,30.08,10,10,8,18,7,25,0.11,6,Rain,234
2013-9-16,56,50,44,54,48,41,100,82,64,30.40,30.23,30.09,10,9,4,17,7,22,0.07,7,Rain,323
2013-9-17,64,51,37,46,40,36,100,70,40,30.52,30.43,30.32,10,8,0,10,3,15,0.00,2,Fog,203
2013-9-18,74,59,43,52,45,38,96,62,27,30.32,30.22,30.13,10,10,10,13,5,21,0.00,0,,212
2013-9-19,77,64,51,60,52,46,93,68,43,30.15,30.10,30.04,10,10,6,10,5,14,0.00,1,,219
2013-9-20,83,70,56,63,59,54,93,72,51,30.04,29.93,29.78,10,9,5,18,8,24,0.00,3,Fog,204
2013-9-21,72,63,54,61,59,52,97,82,66,29.77,29.69,29.65,10,8,1,23,7,31,1.04,8,Rain,270
2013-9-22,57,54,51,50,44,39,89,72,55,30.04,29.90,29.75,10,10,10,21,10,26,T,8,,289
2013-9-23,59,51,42,44,41,38,89,68,47,30.17,30.12,30.04,10,10,10,16,6,18,0.00,4,,319
2013-9-24,65,53,40,47,41,38,100,70,40,30.17,30.10,30.03,10,10,8,12,5,17,0.00,0,,277
2013-9-25,68,55,41,52,44,40,96,68,39,30.05,30.01,29.98,10,10,9,13,4,16,0.00,3,,270
2013-9-26,70,57,43,54,48,42,96,75,53,30.17,30.10,30.03,10,10,7,14,4,17,0.00,3,,307
2013-9-27,67,56,45,54,50,44,100,82,63,30.29,30.25,30.18,10,10,7,13,4,17,0.00,3,,341
2013-9-28,74,59,44,55,49,44,100,75,49,30.33,30.27,30.20,10,7,0,10,3,14,0.00,2,Fog,153
2013-9-29,75,61,47,53,50,45,93,68,43,30.20,30.09,30.01,10,10,10,15,5,20,0.00,2,,198
2013-9-30,77,66,55,60,55,50,90,72,54,30.04,30.01,29.96,10,10,10,12,5,15,0.00,6,,231